Wind_Speed
22 22 22 21 19 19 18 19 19 20 20 21 22 22 22 22 23 24 24 24 25 25 26 29 30 31 32 34 36 39 38 38 35 34 35 34 33 32 32 31 30 30 30
23 23 22 21 21 21 21 20 20 20 21 21 22 23 23 23 24 25 26 26 27 28 30 31 33 35 37 37 38 38 39 40 41 40 38 37 37 36 35 35 33 33 32
24 24 23 22 21 21 21 22 22 21 21 21 21 21 22 23 23 24 25 26 26 28 28 29 30 31 34 36 37 41 43 43 41 43 44 42 39 40 39 39 38 36 36
26 25 23 21 21 21 21 21 21 21 20 19 20 20 21 22 23 24 25 26 27 28 29 30 31 32 34 36 38 39 41 44 47 48 46 47 45 42 42 42 42 41 41
23 22 20 20 21 21 22 22 22 20 19 20 20 20 21 22 22 22 24 24 25 27 28 30 31 33 34 35 37 41 43 44 46 49 52 52 50 48 45 44 45 46 43
23 22 22 21 21 22 22 22 22 21 19 18 19 20 20 22 23 23 25 26 27 28 30 30 29 30 31 31 32 36 39 37 40 46 50 53 54 52 52 48 50 51 49
23 23 23 22 21 21 22 22 22 22 21 20 19 21 21 24 24 25 25 26 27 28 29 30 29 29 28 28 30 32 35 36 33 37 42 47 54 55 55 58 51 49 53
23 23 23 22 22 22 23 23 23 23 24 23 22 21 21 23 25 25 26 27 28 28 28 28 28 28 28 27 28 28 31 35 34 31 26 38 45 58 59 59 54 63 50
22 22 23 22 22 23 23 24 24 24 25 26 24 25 23 22 23 26 27 29 28 28 28 28 28 28 27 27 27 26 28 28 23 22 27 32 37 46 58 60 56 58 50
21 22 22 22 23 23 23 24 24 24 25 25 26 26 26 25 24 24 26 27 31 28 28 27 27 27 27 26 26 25 21 23 22 24 24 37 38 40 44 50 57 64 58
20 21 21 21 22 22 22 22 23 25 25 26 26 27 28 29 28 27 23 25 28 29 28 26 25 25 25 24 25 25 23 22 25 24 28 26 29 39 41 40 43 48 54
20 21 22 24 24 24 24 24 24 24 25 26 27 28 28 30 32 32 31 27 26 28 26 25 24 24 24 24 24 24 24 25 27 26 27 25 24 29 38 41 39 43 42
19 20 22 24 25 26 27 27 26 26 26 26 27 28 29 30 30 32 32 30 28 26 28 26 26 26 24 23 24 23 23 23 26 27 27 27 27 27 26 27 30 33 33
23 24 26 27 27 26 26 27 28 28 28 27 27 27 28 29 30 30 31 31 30 28 27 26 26 26 27 24 23 24 23 24 25 26 25 25 26 27 27 29 24 24 26
26 28 28 28 29 28 29 30 29 29 28 29 29 29 30 31 31 31 31 31 32 32 29 26 27 24 25 26 24 23 25 25 24 25 25 24 24 24 26 25 26 25 25
29 30 30 30 30 31 32 32 32 32 31 31 30 29 29 29 30 30 30 31 31 32 32 29 27 26 25 26 26 26 25 25 26 26 27 26 24 23 22 23 22 22 24
30 31 32 32 32 33 34 34 34 34 33 32 31 29 29 29 29 30 31 32 32 32 32 28 28 27 26 27 26 27 26 26 26 27 27 28 27 25 22 21 21 24 20
31 32 32 33 33 33 34 35 35 34 34 32 31 30 29 29 28 29 30 31 31 32 31 29 27 27 28 29 28 28 28 27 27 27 27 26 26 27 26 23 21 22 21
32 33 34 35 35 34 35 36 36 35 35 34 32 31 29 29 28 29 29 29 29 30 30 29 27 27 29 30 28 28 27 26 27 25 26 25 24 24 24 24 22 22 26
35 35 36 37 37 37 37 37 37 37 37 36 34 32 30 30 29 30 30 29 29 29 29 28 26 29 31 30 30 28 24 25 24 23 22 23 21 20 20 19 20 19 20
34 34 35 34 35 36 36 37 38 38 38 38 35 35 33 32 30 30 30 29 29 29 29 27 28 33 31 30 30 26 21 20 21 20 19 22 21 21 19 19 18 18 19
36 37 37 36 35 35 35 37 38 39 39 38 38 36 32 36 31 32 30 29 28 28 28 28 29 32 30 28 27 23 20 21 21 23 19 21 20 22 22 22 22 22 22
40 39 39 39 39 37 36 38 39 41 41 41 41 39 35 33 35 32 30 30 29 26 27 30 31 31 29 28 25 25 22 24 23 21 19 19 21 21 19 17 16 16 17
45 46 46 45 45 42 39 39 41 44 43 40 41 34 38 34 36 33 31 29 29 27 28 31 32 31 27 26 25 24 24 24 21 21 19 15 15 15 15 15 15 16 17
52 51 49 48 46 45 41 39 41 44 42 39 37 35 36 36 36 33 33 29 29 27 29 30 33 29 28 27 26 25 23 24 21 19 19 17 16 16 17 18 18 19 20
55 56 55 53 51 48 42 39 38 40 39 38 35 31 33 36 35 34 34 30 29 28 31 32 34 27 27 27 27 26 24 22 23 21 18 18 18 19 18 18 19 21 23
Wind_Direction
308 308 308 305 305 305 302 297 296 295 294 293 292 291 289 289 287 283 278 274 271 269 266 265 264 262 260 259 259 259 257 257 260 261 261 261 260 260 261 262 263 263 260
306 307 308 306 306 305 301 297 294 293 293 292 291 292 291 289 285 283 285 284 281 278 277 277 277 277 274 268 261 260 261 260 257 257 257 257 258 257 258 259 257 258 260
305 307 307 304 302 301 300 300 300 299 297 296 295 295 294 292 289 288 285 283 284 284 284 284 281 279 277 275 270 265 260 258 259 257 255 254 255 256 255 255 257 255 255
308 305 302 300 300 302 303 301 300 300 302 301 297 297 295 293 290 290 288 289 288 288 287 285 283 282 281 279 275 270 265 262 258 257 258 254 251 251 253 253 255 254 251
309 306 303 301 302 303 303 304 302 305 307 306 302 299 295 293 291 290 287 286 286 285 284 285 286 284 282 280 278 275 271 266 261 257 256 256 253 248 249 250 251 254 250
310 307 305 305 305 305 306 306 307 307 308 305 301 297 295 293 294 293 294 294 294 293 291 288 284 283 283 280 278 275 273 275 274 264 258 255 253 252 250 248 251 248 250
309 308 307 306 305 304 305 306 305 304 301 300 299 301 301 299 297 296 296 295 294 292 291 291 291 289 286 284 283 274 268 281 282 272 264 257 252 250 248 247 246 242 244
308 307 303 302 305 304 301 299 299 301 304 304 302 299 296 296 297 297 300 298 297 295 296 295 295 292 289 282 279 280 272 275 281 275 280 262 258 249 248 250 253 257 259
303 302 303 304 303 301 303 304 304 304 304 304 301 298 294 289 290 295 297 297 295 294 293 294 294 294 291 283 278 280 284 284 285 283 264 264 264 254 251 253 257 256 261
304 304 305 305 306 304 303 302 300 300 299 299 299 298 298 297 292 287 291 293 295 293 292 294 296 296 294 288 283 283 287 286 288 278 283 267 268 262 260 259 259 257 259
304 302 301 300 298 296 296 298 301 303 302 302 302 301 300 300 298 295 288 285 292 294 294 294 293 290 286 286 283 281 278 279 278 272 272 284 272 259 261 265 270 269 267
303 306 306 303 302 303 303 303 302 301 300 300 300 300 300 302 304 304 302 298 292 289 291 293 292 289 287 284 282 281 279 274 275 277 278 278 275 270 264 264 271 268 270
298 303 308 309 307 305 304 303 303 303 303 303 303 302 302 301 300 300 300 299 295 290 293 296 292 290 288 286 284 280 280 278 276 275 274 278 277 276 280 272 266 268 255
295 301 305 305 302 301 300 300 301 301 301 301 300 300 299 298 298 297 296 296 294 294 295 296 292 290 289 287 285 284 280 279 277 278 276 272 272 276 277 277 276 262 252
293 299 301 300 299 298 297 296 296 296 298 299 300 303 305 305 304 301 297 295 295 296 296 299 296 291 288 288 286 283 281 279 277 278 278 276 271 268 267 274 268 266 273
301 301 300 298 296 295 294 294 294 295 298 301 303 302 301 300 299 297 294 292 293 296 300 300 298 296 293 292 291 289 284 280 278 275 275 276 275 273 268 269 272 270 262
296 299 300 301 299 297 294 294 294 294 295 295 296 297 297 297 298 297 294 293 294 297 302 302 300 299 300 297 295 293 290 285 281 279 275 273 275 276 276 275 272 271 266
299 299 299 298 297 295 294 293 290 288 287 290 292 294 295 295 298 297 294 292 293 297 299 299 299 301 303 301 299 293 288 285 282 279 278 273 270 271 271 269 268 268 272
297 298 297 297 295 292 288 287 287 285 284 285 288 291 292 294 296 294 292 290 290 293 295 296 298 303 304 299 296 291 286 283 281 278 275 274 271 268 270 270 267 264 266
299 298 295 294 294 292 290 289 287 285 282 281 284 287 289 290 291 290 288 286 287 289 290 292 298 307 304 300 297 290 286 283 277 276 275 275 276 274 274 274 274 272 268
303 301 300 298 295 293 292 290 287 283 281 280 281 283 282 283 287 288 288 284 285 288 288 291 302 307 303 299 294 289 287 281 277 275 274 276 278 279 280 280 281 282 278
304 304 303 302 299 296 294 290 287 284 282 279 277 278 280 280 280 283 283 281 281 284 286 294 302 302 297 294 291 286 281 276 273 277 272 274 274 277 280 281 284 285 283
300 301 303 302 300 297 296 292 288 285 282 282 279 275 275 278 276 279 282 282 281 280 285 293 302 299 292 289 287 285 280 275 275 273 269 267 272 273 274 277 282 286 290
299 299 297 295 295 296 293 290 287 284 284 281 280 279 271 275 274 276 278 279 278 277 282 289 299 296 288 289 286 277 275 276 276 278 274 263 264 265 272 277 280 284 286
298 297 296 295 292 290 288 285 283 282 283 282 278 270 264 268 273 273 276 276 275 276 282 290 295 289 287 287 287 282 278 279 280 277 272 267 267 269 274 277 282 283 283
295 293 291 289 287 287 286 283 282 282 284 282 277 264 260 264 268 272 272 273 272 275 279 288 292 287 285 286 284 278 278 280 282 277 273 269 275 279 276 279 284 286 285
Height
3140 3138 3135 3132 3130 3128 3126 3124 3123 3122 3120 3119 3117 3116 3115 3113 3111 3109 3108 3107 3107 3106 3106 3105 3104 3104 3104 3105 3105 3106 3106 3107 3108 3109 3110 3110 3111 3113 3113 3113 3114 3114 3115
3135 3133 3131 3128 3126 3123 3121 3120 3119 3118 3117 3115 3113 3111 3110 3108 3106 3104 3102 3102 3101 3100 3101 3101 3100 3100 3099 3099 3098 3098 3098 3098 3098 3100 3101 3102 3103 3104 3106 3106 3107 3108 3109
3131 3128 3126 3124 3122 3120 3117 3116 3114 3113 3112 3111 3109 3107 3105 3102 3101 3099 3097 3095 3095 3094 3093 3093 3092 3091 3089 3089 3090 3090 3089 3089 3089 3090 3092 3093 3095 3096 3097 3098 3099 3101 3102
3126 3124 3122 3119 3117 3115 3113 3111 3110 3109 3108 3106 3104 3102 3100 3097 3095 3094 3092 3091 3090 3089 3088 3086 3084 3083 3082 3080 3079 3078 3079 3079 3079 3080 3081 3083 3084 3086 3088 3090 3090 3092 3095
3121 3118 3117 3115 3113 3111 3109 3107 3105 3105 3104 3102 3100 3097 3095 3092 3090 3089 3087 3085 3084 3082 3081 3080 3078 3075 3072 3070 3069 3068 3067 3067 3068 3068 3070 3072 3074 3075 3077 3079 3081 3082 3085
3116 3115 3113 3111 3109 3107 3105 3103 3101 3100 3100 3098 3096 3093 3091 3088 3086 3084 3082 3080 3079 3077 3074 3072 3070 3067 3065 3063 3059 3057 3056 3056 3056 3057 3057 3059 3061 3065 3067 3068 3068 3070 3071
3113 3111 3109 3107 3105 3103 3101 3099 3097 3095 3093 3092 3091 3087 3085 3082 3079 3077 3075 3072 3071 3069 3067 3065 3062 3060 3057 3054 3052 3049 3047 3048 3046 3045 3045 3046 3048 3050 3051 3052 3048 3042 3057
3108 3106 3104 3102 3100 3098 3095 3093 3092 3090 3088 3087 3086 3084 3081 3079 3073 3072 3070 3067 3064 3062 3059 3056 3054 3052 3050 3047 3045 3043 3040 3039 3037 3036 3035 3034 3033 3036 3037 3037 3041 3039 3031
3103 3101 3100 3097 3095 3093 3091 3088 3086 3084 3082 3079 3078 3077 3075 3074 3071 3066 3063 3060 3058 3055 3053 3050 3047 3044 3042 3040 3038 3036 3032 3029 3028 3027 3027 3022 3020 3023 3025 3028 3032 3034 3032
3099 3097 3094 3092 3090 3088 3085 3083 3080 3078 3075 3073 3070 3068 3066 3066 3064 3063 3059 3054 3049 3048 3045 3042 3039 3037 3034 3032 3029 3028 3026 3023 3021 3018 3018 3015 3016 3016 3015 3016 3020 3021 3026
3094 3091 3089 3086 3083 3081 3079 3077 3075 3072 3070 3067 3064 3060 3057 3053 3052 3052 3053 3050 3044 3039 3037 3035 3033 3029 3026 3025 3023 3020 3019 3017 3014 3012 3011 3010 3007 3007 3007 3008 3008 3009 3012
3090 3088 3085 3082 3080 3077 3074 3072 3069 3066 3063 3060 3057 3054 3051 3047 3043 3041 3039 3040 3038 3034 3031 3029 3027 3023 3021 3018 3016 3014 3012 3010 3007 3006 3003 3002 3000 2999 2999 3000 3000 3000 3001
3085 3083 3081 3078 3075 3072 3069 3066 3063 3060 3057 3055 3052 3049 3045 3042 3039 3036 3033 3031 3030 3029 3025 3023 3020 3017 3014 3012 3010 3008 3006 3003 3000 2999 2997 2994 2993 2992 2991 2991 2991 2993 2992
3081 3078 3075 3072 3068 3065 3061 3059 3056 3053 3050 3047 3044 3042 3039 3035 3032 3029 3027 3024 3022 3020 3019 3016 3013 3010 3007 3004 3003 3002 3000 2997 2994 2991 2991 2989 2986 2984 2983 2983 2985 2986 2986
3075 3072 3069 3065 3061 3058 3055 3052 3049 3046 3043 3040 3038 3035 3033 3030 3028 3024 3021 3018 3015 3012 3011 3010 3006 3005 3001 2999 2996 2994 2992 2991 2988 2985 2983 2982 2981 2979 2977 2976 2977 2978 2978
3069 3065 3061 3058 3054 3051 3048 3046 3043 3040 3038 3034 3032 3029 3025 3022 3018 3015 3012 3010 3008 3005 3002 3001 2998 2996 2994 2992 2990 2988 2985 2983 2980 2978 2976 2974 2974 2973 2971 2970 2970 2971 2972
3062 3058 3054 3052 3048 3045 3041 3039 3036 3033 3030 3027 3023 3021 3017 3014 3011 3008 3005 3002 3000 2998 2996 2995 2992 2988 2986 2985 2983 2980 2978 2975 2973 2971 2968 2967 2964 2965 2965 2963 2963 2964 2965
3056 3052 3048 3044 3041 3037 3033 3030 3027 3023 3021 3018 3015 3012 3010 3006 3003 3000 2998 2995 2993 2990 2989 2987 2985 2982 2979 2976 2975 2973 2971 2967 2965 2963 2962 2959 2958 2956 2957 2959 2958 2957 2958
3048 3044 3040 3036 3032 3027 3023 3020 3017 3014 3011 3009 3007 3005 3003 2999 2996 2992 2990 2988 2985 2983 2980 2979 2977 2974 2972 2969 2967 2964 2963 2960 2957 2956 2954 2952 2951 2950 2949 2950 2952 2952 2950
3039 3035 3031 3027 3023 3019 3015 3011 3007 3005 3002 3000 2998 2997 2995 2991 2989 2985 2982 2980 2978 2975 2973 2971 2970 2967 2964 2961 2959 2957 2955 2952 2950 2949 2947 2946 2944 2943 2942 2942 2943 2944 2945
3030 3026 3022 3018 3014 3009 3006 3002 2998 2995 2992 2990 2988 2986 2985 2983 2981 2978 2975 2973 2970 2968 2966 2964 2962 2959 2956 2954 2952 2950 2947 2947 2945 2943 2942 2940 2939 2937 2936 2935 2935 2936 2937
3023 3018 3014 3010 3006 3001 2997 2993 2988 2984 2981 2979 2978 2976 2974 2973 2971 2969 2966 2964 2962 2960 2959 2957 2955 2953 2950 2947 2944 2943 2942 2941 2940 2937 2937 2934 2934 2931 2931 2929 2928 2928 2929
3013 3009 3004 2999 2994 2991 2987 2982 2977 2972 2970 2968 2966 2966 2965 2964 2961 2960 2958 2955 2955 2952 2950 2949 2948 2945 2943 2940 2937 2936 2934 2934 2933 2931 2931 2930 2928 2927 2925 2924 2923 2922 2921
3003 2998 2993 2989 2983 2980 2975 2970 2965 2959 2957 2957 2955 2954 2955 2954 2953 2950 2948 2947 2946 2944 2942 2941 2938 2937 2934 2932 2930 2929 2928 2927 2926 2924 2924 2924 2923 2922 2921 2920 2919 2918 2916
2990 2985 2980 2975 2969 2965 2961 2957 2952 2947 2944 2944 2943 2943 2942 2943 2943 2940 2939 2938 2937 2936 2933 2932 2930 2928 2926 2924 2922 2921 2921 2919 2918 2918 2918 2917 2917 2916 2915 2913 2912 2911 2910
2973 2967 2963 2960 2955 2950 2947 2943 2938 2935 2934 2932 2931 2931 2931 2932 2932 2931 2929 2928 2928 2928 2925 2923 2921 2919 2917 2916 2915 2914 2913 2912 2911 2911 2911 2911 2910 2909 2909 2907 2906 2903 2901